KB2SKP Weather Reports


time (UTC)temp
F
wind
direction
speed
knots
gust
knots
rain 1hr
in
rain 24hr
in
rain mn
in
humidity
%
barometer
mb
20260505035028 61 160 1.7 1.7 0.00 0.00 0.00 63 1008.1
20260505034525 61 150 0.9 1.7 0.00 0.00 0.00 65 1008.2
20260505034022 61 132 0.9 1.7 0.00 0.00 0.00 64 1008.4
20260505033519 61 110 0.0 1.7 0.00 0.00 0.00 66 1008.2
20260505033017 61 86 0.9 2.6 0.00 0.00 0.00 67 1008.3
20260505032514 61 89 0.0 1.7 0.00 0.00 0.00 67 1008.3
20260505032011 61 68 0.0 1.7 0.00 0.00 0.00 66 1008.3
20260505031508 60 107 0.0 1.7 0.00 0.00 0.00 66 1008.2
20260505031004 60 57 0.9 1.7 0.00 0.00 0.00 66 1008.2
20260505030501 60 86 1.7 1.7 0.00 0.00 0.00 66 1008.4
20260505025956 61 99 0.9 1.7 0.00 0.00 0.00 65 1008.4
20260505025453 61 216 0.0 1.7 0.00 0.00 0.00 66 1008.3
20260505024952 61 82 0.0 1.7 0.00 0.00 0.00 65 1008.3
20260505024449 61 118 1.7 1.7 0.00 0.00 0.00 65 1008.4
20260505023946 61 193 0.0 1.7 0.00 0.00 0.00 64 1008.5
20260505023443 61 130 0.9 0.9 0.00 0.00 0.00 65 1008.4
20260505022940 61 89 0.0 0.9 0.00 0.00 0.00 65 1008.4
20260505022438 61 89 0.0 1.7 0.00 0.00 0.00 65 1008.3
20260505021935 61 180 0.0 0.9 0.00 0.00 0.00 64 1008.3
20260505021431 61 124 0.0 0.0 0.00 0.00 0.00 67 1008.1
20260505020927 61 89 0.0 0.9 0.00 0.00 0.00 66 1008.1
20260505020422 62 114 0.0 0.9 0.00 0.00 0.00 65 1008.0
20260505015920 62 135 0.0 1.7 0.00 0.00 0.00 64 1008.3
20260505015417 62 178 1.7 1.7 0.00 0.00 0.00 65 1008.3
20260505014914 62 134 0.9 0.9 0.00 0.00 0.00 65 1008.2
20260505014411 62 88 0.0 0.9 0.00 0.00 0.00 64 1008.2
20260505013908 63 89 0.0 0.9 0.00 0.00 0.00 63 1008.3
20260505013404 62 104 0.0 0.0 0.00 0.00 0.00 62 1008.3
20260505012903 62 142 0.0 0.0 0.00 0.00 0.00 62 1008.2
20260505012400 63 142 0.0 0.0 0.00 0.00 0.00 61 1008.2
20260505011856 63 142 0.0 0.0 0.00 0.00 0.00 60 1008.1
20260505011353 63 93 0.9 0.9 0.00 0.00 0.00 60 1008.1
20260505010849 64 84 0.9 0.9 0.00 0.00 0.00 59 1008.0
20260505010345 64 89 0.0 0.0 0.00 0.00 0.00 57 1008.1
20260505005842 64 49 0.0 0.0 0.00 0.00 0.00 57 1007.8
20260505005339 65 103 0.0 0.0 0.00 0.00 0.00 56 1007.8
20260505004836 65 66 0.0 0.0 0.00 0.00 0.00 55 1008.0
20260505004332 65 124 0.0 0.9 0.00 0.00 0.00 54 1007.8
20260505003830 65 135 0.0 1.7 0.00 0.00 0.00 54 1007.7
20260505003327 66 47 0.9 0.9 0.00 0.00 0.00 52 1007.5
20260505002823 66 76 0.0 0.0 0.00 0.00 0.00 51 1007.8
20260505002320 66 53 0.0 0.9 0.00 0.00 0.00 50 1007.8
20260505001818 66 119 1.7 1.7 0.00 0.00 0.00 50 1007.7
20260505001315 66 141 0.0 0.9 0.00 0.00 0.00 49 1007.7
20260505000812 67 326 0.0 0.0 0.00 0.00 0.00 49 1007.3
20260505000310 67 80 0.0 1.7 0.00 0.00 0.00 48 1007.8
20260504235806 68 193 0.0 0.0 0.00 0.00 0.00 47 1007.5
20260504235304 68 193 0.0 0.0 0.00 0.00 0.00 45 1007.4
20260504234800 69 168 0.0 0.0 0.00 0.00 0.00 45 1007.5
20260504234258 69 168 0.0 0.0 0.00 0.00 0.00 44 1007.5
20260504233754 70 69 0.0 0.9 0.00 0.00 0.00 43 1007.3
20260504233249 70 49 0.0 0.0 0.00 0.00 0.00 44 1007.4
20260504232746 71 89 0.0 0.0 0.00 0.00 0.00 41 1007.4
20260504232243 71 76 0.0 0.0 0.00 0.00 0.00 41 1007.3
20260504231740 72 142 0.0 0.9 0.00 0.00 0.00 41 1007.2
20260504231237 72 191 0.0 2.6 0.00 0.00 0.00 39 1007.2
20260504230732 72 158 0.9 0.9 0.00 0.00 0.00 39 1007.3
20260504230232 73 327 0.0 1.7 0.00 0.00 0.00 40 1007.1
20260504225730 73 95 0.0 0.0 0.00 0.00 0.00 38 1007.4
20260504225226 73 117 0.0 0.9 0.00 0.00 0.00 36 1007.3
20260504224723 73 117 0.0 2.6 0.00 0.00 0.00 36 1007.4
20260504224220 74 240 0.0 2.6 0.00 0.00 0.00 36 1007.3
20260504223716 73 207 1.7 2.6 0.00 0.00 0.00 35 1007.2
20260504223212 74 102 0.0 1.7 0.00 0.00 0.00 35 1007.4
20260504222709 74 142 0.0 0.9 0.00 0.00 0.00 35 1007.3
20260504222206 74 89 0.0 2.6 0.00 0.00 0.00 35 1007.4
20260504221704 74 343 0.0 2.6 0.00 0.00 0.00 34 1007.3
20260504221201 74 114 0.0 0.9 0.00 0.00 0.00 35 1007.5
20260504220657 74 290 0.0 0.9 0.00 0.00 0.00 35 1007.5
20260504220155 74 129 0.0 1.7 0.00 0.00 0.00 34 1007.4
20260504215651 75 239 0.9 2.6 0.00 0.00 0.00 33 1007.4
20260504215148 75 326 0.0 1.7 0.00 0.00 0.00 34 1007.4
20260504214644 75 126 0.0 1.7 0.00 0.00 0.00 33 1007.6
20260504214140 75 111 1.7 5.2 0.00 0.00 0.00 33 1007.6
20260504213637 75 55 1.7 2.6 0.00 0.00 0.00 33 1007.7
20260504213134 76 123 0.0 1.7 0.00 0.00 0.00 37 1007.5
20260504212630 75 136 0.9 2.6 0.00 0.00 0.00 34 1007.3
20260504212127 74 240 2.6 2.6 0.00 0.00 0.00 35 1007.7
20260504211625 75 23 1.7 2.6 0.00 0.00 0.00 34 1007.7
20260504211121 74 89 0.0 1.7 0.00 0.00 0.00 36 1007.4
20260504210619 75 195 0.0 1.7 0.00 0.00 0.00 34 1007.6
20260504210115 75 244 0.9 2.6 0.00 0.00 0.00 32 1007.7
20260504205613 75 117 0.0 0.9 0.00 0.00 0.00 33 1007.7
20260504205110 75 224 0.0 1.7 0.00 0.00 0.00 32 1007.6
20260504204609 75 64 0.0 5.2 0.00 0.00 0.00 32 1007.3
20260504204107 76 85 0.9 2.6 0.00 0.00 0.00 31 1007.3
20260504203605 77 86 0.0 1.7 0.00 0.00 0.00 31 1007.3
20260504203102 77 220 1.7 1.7 0.00 0.00 0.00 30 1007.2
20260504202557 76 178 0.9 2.6 0.00 0.00 0.00 31 1007.5
20260504202054 77 164 0.9 2.6 0.00 0.00 0.00 30 1007.5
20260504201551 76 76 0.9 2.6 0.00 0.00 0.00 31 1007.4
20260504201049 76 85 0.9 2.6 0.00 0.00 0.00 31 1007.6
20260504200545 76 76 0.0 2.6 0.00 0.00 0.00 31 1007.6
20260504200042 76 152 0.0 3.5 0.00 0.00 0.00 30 1007.9
20260504195538 77 138 0.9 3.5 0.00 0.00 0.00 32 1007.8
20260504195035 76 268 1.7 3.5 0.00 0.00 0.00 31 1008.1
20260504194531 77 113 1.7 2.6 0.00 0.00 0.00 32 1007.8
20260504194027 76 325 1.7 2.6 0.00 0.00 0.00 32 1008.0
20260504193524 77 95 1.7 1.7 0.00 0.00 0.00 32 1008.1
20260504193023 76 182 1.7 2.6 0.00 0.00 0.00 32 1008.1
20260504192520 75 108 0.9 4.3 0.00 0.00 0.00 30 1008.2
20260504192019 77 207 2.6 2.6 0.00 0.00 0.00 32 1008.5
20260504191516 77 239 2.6 3.5 0.00 0.00 0.00 31 1008.6
20260504191012 76 167 1.7 2.6 0.00 0.00 0.00 32 1008.6
20260504190508 75 213 0.9 3.5 0.00 0.00 0.00 31 1008.5
20260504190004 75 235 1.7 2.6 0.00 0.00 0.00 30 1008.7
20260504185501 75 84 1.7 2.6 0.00 0.00 0.00 31 1008.3
20260504184958 75 163 0.9 2.6 0.00 0.00 0.00 32 1008.7
20260504184453 74 34 0.0 3.5 0.00 0.00 0.00 32 1008.8
20260504183949 74 269 0.0 2.6 0.00 0.00 0.00 32 1008.7
20260504183446 74 106 1.7 2.6 0.00 0.00 0.00 32 1009.0
20260504182944 74 96 1.7 3.5 0.00 0.00 0.00 32 1009.1
20260504182441 75 131 1.7 3.5 0.00 0.00 0.00 33 1009.1
20260504181938 74 199 0.9 2.6 0.00 0.00 0.00 32 1009.1
20260504181435 75 80 1.7 2.6 0.00 0.00 0.00 31 1009.2
20260504180934 75 232 0.9 2.6 0.00 0.00 0.00 34 1009.3
20260504180432 74 266 1.7 1.7 0.00 0.00 0.00 33 1009.2
20260504175930 74 161 1.7 2.6 0.00 0.00 0.00 32 1009.4
20260504175427 74 180 1.7 4.3 0.00 0.00 0.00 33 1009.3
20260504174925 74 108 0.9 2.6 0.00 0.00 0.00 33 1009.3
20260504174422 73 232 1.7 4.3 0.00 0.00 0.00 33 1009.1
20260504173919 73 69 1.7 2.6 0.00 0.00 0.00 33 1009.5
20260504173416 73 161 2.6 2.6 0.00 0.00 0.00 33 1009.8
20260504172913 73 55 4.3 4.3 0.00 0.00 0.00 34 1009.7
20260504172409 73 138 0.9 2.6 0.00 0.00 0.00 34 1009.8
20260504171905 72 221 2.6 8.7 0.00 0.00 0.00 33 1009.7
20260504171403 72 279 2.6 3.5 0.00 0.00 0.00 34 1009.9
20260504170900 72 117 1.7 4.3 0.00 0.00 0.00 34 1010.1
20260504170356 72 120 2.6 3.5 0.00 0.00 0.00 33 1009.9
20260504160315 69 13 0.0 2.6 0.00 0.00 0.00 36 1010.7
20260504150740 67 180 0.0 1.7 0.00 0.00 0.00 38 1011.1
20260504150236 66 286 1.7 2.6 0.00 0.00 0.00 39 1010.9
20260504141206 63 143 3.5 5.2 0.00 0.00 0.00 44 1011.2
20260504140703 63 116 0.9 1.7 0.00 0.00 0.00 50 1011.1
20260504140158 62 177 0.0 2.6 0.00 0.00 0.00 49 1011.1
20260504130626 58 120 1.7 4.3 0.00 0.00 0.00 56 1011.7
20260504130123 58 163 1.7 2.6 0.00 0.00 0.00 58 1011.6
20260504110515 53 52 0.9 1.7 0.00 0.00 0.00 67 1012.2
20260504100437 52 124 0.0 1.7 0.00 0.00 0.00 71 1012.4
20260504081830 51 146 0.0 2.6 0.00 0.00 0.00 77 1012.5
20260504081326 51 88 1.7 2.6 0.00 0.00 0.00 76 1012.5
20260504080822 50 120 0.9 2.6 0.00 0.00 0.00 78 1012.6
20260504080320 50 56 0.0 2.6 0.00 0.00 0.00 79 1012.6
20260504070241 48 76 0.9 2.6 0.00 0.00 0.00 82 1012.9
20260504060202 47 119 0.9 2.6 0.00 0.00 0.00 84 1012.6
20260504050630 45 102 1.7 2.6 0.00 0.00 0.00 85 1013.0
20260504050127 45 99 1.7 2.6 0.00 0.00 0.00 85 1012.9
20260504045624 44 110 2.6 2.6 0.00 0.00 0.00 85 1012.9
20260504045118 44 91 1.7 2.6 0.00 0.00 0.00 85 1012.9
20260504044617 44 117 0.9 1.7 0.00 0.00 0.00 85 1012.9
20260504044113 44 94 1.7 2.6 0.00 0.00 0.00 85 1013.0
20260504043610 44 111 1.7 2.6 0.00 0.00 0.00 85 1012.9
20260504043108 43 103 1.7 2.6 0.00 0.00 0.00 85 1013.1
20260504042605 43 115 1.7 2.6 0.00 0.00 0.00 85 1013.0
20260504042101 43 114 1.7 2.6 0.00 0.00 0.00 85 1012.8
20260504041557 43 102 1.7 2.6 0.00 0.00 0.00 85 1012.8
20260504041054 43 83 1.7 1.7 0.00 0.00 0.00 85 1012.8
20260504040551 43 106 0.9 1.7 0.00 0.00 0.00 84 1012.9
20260504040047 43 86 0.9 2.6 0.00 0.00 0.00 84 1012.8
20260504035544 44 111 1.7 2.6 0.00 0.00 0.00 84 1012.7